User: anonymous   Login
Location: Maiden
(35.5760°N, 81.2120°W)
Time: 10:58:20
(UTC-04:00)
Language:

Transit 2A - Orbit

View from above orbital plane
View from above orbital plane
View from above satellite
View from above satellite

Ground track
Ground track

The orbit data is extracted from the following two-line orbital elements,

1    45U 60007A   20216.46401659 -.00000043  00000-0  16526-4 0  9990
2    45  66.6931 257.0251 0262863 281.0744  76.0901 14.33683209129449
Epoch (UTC): 03 August 2020 11:08:11
Eccentricity: 0.0262863
inclination: 66.6931°
perigee height: 591 km
apogee height: 967 km
right ascension of ascending node: 257.0251°
argument of perigee: 281.0744°
revolutions per day: 14.33683209
mean anomaly at epoch: 76.0901°
orbit number at epoch: 12944

The dashed part of the orbit path shows where the satellite is in the earth's shadow,  

DLR